BAW78J LEAL-EGKK

Flight info

Callsign BAW78J
Flight time N/A
Altitude 37000
Route MITOS N608 COMPI Y90 USKAR DCT MOPAS DCT GIROM DCT GONUP DCT MANAK DCT EPAPU UM184 EKRAS UT507 REVTU UP88 VASUX
Aircraft A321/M-SDE3FGHIRWY/LB1

Departure

Time 2026-05-06 17:17
Airport Alicante-Elche Miguel Hernández Airport (LEAL)

Arrival

Time N/A
Airport London Gatwick Airport (EGKK)
Time Latitude Longitude Altitude Speed Heading
2026-05-06 16:56 38.28769 -0.54996 90 ft 0 kts 281°
2026-05-06 17:06 38.28765 -0.54967 90 ft 4 kts 281°
2026-05-06 17:06 38.28761 -0.54934 90 ft 3 kts 272°
2026-05-06 17:06 38.28763 -0.54916 91 ft 2 kts 198°
2026-05-06 17:06 38.28773 -0.54913 92 ft 2 kts 188°
2026-05-06 17:07 38.28776 -0.54912 91 ft 0 kts 187°
2026-05-06 17:09 38.28766 -0.54914 90 ft 4 kts 188°
2026-05-06 17:09 38.28718 -0.54923 87 ft 10 kts 191°
2026-05-06 17:09 38.28671 -0.54935 87 ft 10 kts 191°
2026-05-06 17:10 38.28603 -0.54950 88 ft 10 kts 190°
2026-05-06 17:10 38.28538 -0.54965 90 ft 9 kts 189°
2026-05-06 17:10 38.28473 -0.54979 91 ft 10 kts 189°
2026-05-06 17:10 38.28420 -0.55014 88 ft 8 kts 251°
2026-05-06 17:11 38.28425 -0.55089 89 ft 9 kts 274°
2026-05-06 17:11 38.28393 -0.55155 89 ft 10 kts 229°
2026-05-06 17:11 38.28348 -0.55228 87 ft 11 kts 234°
2026-05-06 17:11 38.28328 -0.55337 91 ft 15 kts 277°
2026-05-06 17:12 38.28347 -0.55472 94 ft 15 kts 280°
2026-05-06 17:12 38.28364 -0.55591 98 ft 12 kts 279°
2026-05-06 17:12 38.28377 -0.55693 101 ft 11 kts 280°
2026-05-06 17:12 38.28390 -0.55781 103 ft 10 kts 281°
2026-05-06 17:13 38.28402 -0.55863 104 ft 9 kts 280°
2026-05-06 17:13 38.28418 -0.55981 107 ft 18 kts 280°
2026-05-06 17:13 38.28440 -0.56139 108 ft 18 kts 280°
2026-05-06 17:13 38.28463 -0.56300 111 ft 18 kts 279°
2026-05-06 17:14 38.28482 -0.56441 116 ft 15 kts 280°
2026-05-06 17:14 38.28499 -0.56559 118 ft 13 kts 279°
2026-05-06 17:14 38.28513 -0.56669 118 ft 12 kts 279°
2026-05-06 17:14 38.28527 -0.56767 121 ft 10 kts 281°
2026-05-06 17:15 38.28539 -0.56849 129 ft 10 kts 280°
2026-05-06 17:15 38.28552 -0.56938 134 ft 11 kts 281°
2026-05-06 17:15 38.28569 -0.57062 139 ft 17 kts 280°
2026-05-06 17:15 38.28592 -0.57225 146 ft 18 kts 279°
2026-05-06 17:16 38.28611 -0.57368 151 ft 15 kts 277°
2026-05-06 17:16 38.28544 -0.57432 154 ft 13 kts 192°
2026-05-06 17:16 38.28460 -0.57441 155 ft 12 kts 159°
2026-05-06 17:16 38.28428 -0.57323 149 ft 17 kts 101°
2026-05-06 17:17 38.28394 -0.57077 139 ft 54 kts 100°
2026-05-06 17:17 38.28285 -0.56293 115 ft 122 kts 100°
2026-05-06 17:17 38.28098 -0.55017 232 ft 160 kts 99°
2026-05-06 17:17 38.27879 -0.53645 1027 ft 158 kts 101°
2026-05-06 17:18 38.27658 -0.52262 1747 ft 162 kts 102°
2026-05-06 17:18 38.27431 -0.50854 2461 ft 162 kts 99°
2026-05-06 17:18 38.27538 -0.49364 2734 ft 181 kts 64°
2026-05-06 17:18 38.28286 -0.47950 2878 ft 204 kts 57°
2026-05-06 17:19 38.29122 -0.46394 3019 ft 228 kts 57°
2026-05-06 17:19 38.30049 -0.44634 3328 ft 247 kts 57°
2026-05-06 17:19 38.31016 -0.42784 3993 ft 252 kts 58°
2026-05-06 17:19 38.31999 -0.40891 4650 ft 259 kts 59°
2026-05-06 17:20 38.32791 -0.38805 5268 ft 265 kts 67°
2026-05-06 17:20 38.33274 -0.37304 5709 ft 269 kts 68°
2026-05-06 17:20 38.33391 -0.36929 5823 ft 271 kts 68°
2026-05-06 17:21 38.33611 -0.36215 6034 ft 272 kts 69°
2026-05-06 17:21 38.34303 -0.33927 6644 ft 279 kts 68°
2026-05-06 17:21 38.35006 -0.31601 7255 ft 284 kts 67°
2026-05-06 17:21 38.35730 -0.29222 7835 ft 291 kts 68°
2026-05-06 17:22 38.36517 -0.26832 8500 ft 294 kts 58°
2026-05-06 17:22 38.37260 -0.25510 8871 ft 294 kts 44°
2026-05-06 17:22 38.38398 -0.24329 9315 ft 293 kts 26°
2026-05-06 17:22 38.38593 -0.24190 9384 ft 293 kts 23°
2026-05-06 17:23 38.40513 -0.23397 10001 ft 292 kts
2026-05-06 17:23 38.42560 -0.22829 10228 ft 312 kts
2026-05-06 17:23 38.44753 -0.22218 10351 ft 333 kts
2026-05-06 17:23 38.47075 -0.21564 10480 ft 351 kts
2026-05-06 17:24 38.49500 -0.20870 10856 ft 360 kts 10°
2026-05-06 17:24 38.51958 -0.20157 11392 ft 365 kts 10°
2026-05-06 17:24 38.54420 -0.19440 11948 ft 368 kts 10°
2026-05-06 17:24 38.56930 -0.18709 12503 ft 372 kts 10°
2026-05-06 17:25 38.59500 -0.17962 13055 ft 376 kts 11°
2026-05-06 17:25 38.62025 -0.17230 13599 ft 379 kts 10°
2026-05-06 17:25 38.64609 -0.16482 14078 ft 383 kts 10°
2026-05-06 17:25 38.67218 -0.15729 14568 ft 385 kts 10°
2026-05-06 17:26 38.69845 -0.14975 15074 ft 388 kts 10°
2026-05-06 17:26 38.72498 -0.14210 15543 ft 392 kts 10°
2026-05-06 17:26 38.75170 -0.13435 15996 ft 395 kts 10°
2026-05-06 17:26 38.77863 -0.12654 16478 ft 398 kts 10°
2026-05-06 17:27 38.80573 -0.11871 16960 ft 402 kts
2026-05-06 17:27 38.83311 -0.11078 17421 ft 405 kts
2026-05-06 17:27 38.86067 -0.10277 17872 ft 408 kts
2026-05-06 17:27 38.88850 -0.09468 18291 ft 411 kts
2026-05-06 17:28 38.91649 -0.08651 18712 ft 414 kts
2026-05-06 17:28 38.94466 -0.07826 19108 ft 416 kts
2026-05-06 17:28 38.97300 -0.06996 19508 ft 418 kts
2026-05-06 17:28 39.00145 -0.06166 19894 ft 421 kts
2026-05-06 17:29 39.03011 -0.05333 20288 ft 424 kts
2026-05-06 17:29 39.05895 -0.04495 20668 ft 426 kts
2026-05-06 17:29 39.08800 -0.03647 21047 ft 429 kts
2026-05-06 17:29 39.11724 -0.02788 21423 ft 432 kts
2026-05-06 17:30 39.14659 -0.01924 21825 ft 434 kts
2026-05-06 17:30 39.17611 -0.01058 22214 ft 436 kts
2026-05-06 17:30 39.20580 -0.00190 22578 ft 439 kts
2026-05-06 17:30 39.23571 0.00685 22924 ft 442 kts
2026-05-06 17:31 39.26579 0.01569 23280 ft 445 kts
2026-05-06 17:31 39.29600 0.02457 23611 ft 447 kts
2026-05-06 17:31 39.32642 0.03350 23906 ft 450 kts
2026-05-06 17:31 39.35707 0.04249 24201 ft 452 kts
2026-05-06 17:32 39.38784 0.05153 24474 ft 455 kts
2026-05-06 17:32 39.41882 0.06068 24755 ft 458 kts
2026-05-06 17:32 39.44998 0.06990 25035 ft 461 kts
2026-05-06 17:32 39.48138 0.07919 25317 ft 463 kts
2026-05-06 17:33 39.51289 0.08854 25598 ft 466 kts
2026-05-06 17:33 39.54458 0.09793 25873 ft 468 kts
2026-05-06 17:33 39.57636 0.10738 26135 ft 471 kts
2026-05-06 17:33 39.60844 0.11694 26415 ft 474 kts
2026-05-06 17:34 39.64063 0.12654 26679 ft 476 kts
2026-05-06 17:34 39.67304 0.13619 26942 ft 479 kts
2026-05-06 17:34 39.70558 0.14588 27201 ft 481 kts
2026-05-06 17:34 39.73828 0.15560 27446 ft 484 kts
2026-05-06 17:35 39.77122 0.16541 27688 ft 486 kts
2026-05-06 17:35 39.80430 0.17526 27912 ft 488 kts
2026-05-06 17:35 39.83744 0.18518 28132 ft 491 kts
2026-05-06 17:36 39.90410 0.20516 28527 ft 496 kts
2026-05-06 17:36 39.93810 0.21537 28737 ft 497 kts
2026-05-06 17:36 39.97184 0.22552 29022 ft 497 kts
2026-05-06 17:36 40.00508 0.23552 29295 ft 497 kts
2026-05-06 17:37 40.03872 0.24643 29596 ft 499 kts
2026-05-06 17:37 40.07221 0.25853 29853 ft 500 kts 10°
2026-05-06 17:37 40.10565 0.27147 30120 ft 501 kts 11°
2026-05-06 17:37 40.13903 0.28477 30360 ft 501 kts 11°
2026-05-06 17:38 40.17245 0.29805 30610 ft 501 kts 11°
2026-05-06 17:38 40.20576 0.31103 30863 ft 500 kts 10°
2026-05-06 17:38 40.23915 0.32376 31119 ft 499 kts 10°
2026-05-06 17:38 40.27248 0.33631 31444 ft 497 kts
2026-05-06 17:39 40.30558 0.34871 31772 ft 494 kts
2026-05-06 17:39 40.33859 0.36109 32024 ft 493 kts
2026-05-06 17:39 40.37157 0.37352 32279 ft 492 kts
2026-05-06 17:39 40.40447 0.38599 32495 ft 492 kts
2026-05-06 17:40 40.43739 0.39849 32708 ft 492 kts
2026-05-06 17:40 40.47025 0.41100 32941 ft 492 kts
2026-05-06 17:40 40.50303 0.42354 33249 ft 490 kts
2026-05-06 17:40 40.53571 0.43605 33556 ft 488 kts
2026-05-06 17:41 40.56831 0.44851 33810 ft 487 kts
2026-05-06 17:41 40.60086 0.46095 34037 ft 487 kts
2026-05-06 17:41 40.63336 0.47340 34230 ft 486 kts
2026-05-06 17:41 40.66542 0.48567 34429 ft 486 kts
2026-05-06 17:42 40.69792 0.49812 34621 ft 486 kts 10°
2026-05-06 17:42 40.73036 0.51057 34809 ft 486 kts 10°
2026-05-06 17:42 40.76278 0.52304 34982 ft 485 kts 10°
2026-05-06 17:42 40.79526 0.53555 35173 ft 485 kts 10°
2026-05-06 17:43 40.82765 0.54808 35366 ft 485 kts 10°
2026-05-06 17:43 40.86002 0.56062 35559 ft 485 kts 10°
2026-05-06 17:43 40.89238 0.57313 35756 ft 484 kts 10°
2026-05-06 17:43 40.92472 0.58559 35919 ft 484 kts 11°
2026-05-06 17:44 40.98926 0.61049 35924 ft 482 kts 11°
2026-05-06 17:44 41.05358 0.63538 35918 ft 482 kts 11°
2026-05-06 17:45 41.11798 0.66040 35913 ft 482 kts 11°
2026-05-06 17:45 41.18239 0.68554 35907 ft 481 kts 11°
2026-05-06 17:46 41.24668 0.71061 35921 ft 482 kts 11°
2026-05-06 17:46 41.31112 0.73579 35925 ft 483 kts 11°
2026-05-06 17:47 41.37567 0.76098 35950 ft 483 kts 11°
2026-05-06 17:47 41.44010 0.78627 35934 ft 483 kts 11°
2026-05-06 17:48 41.50455 0.81165 35936 ft 483 kts 11°
2026-05-06 17:48 41.56867 0.83689 35951 ft 483 kts 11°
2026-05-06 17:49 41.63313 0.86230 35938 ft 483 kts 11°
2026-05-06 17:49 41.69756 0.88777 35932 ft 483 kts 11°
2026-05-06 17:50 41.76196 0.91335 35930 ft 483 kts 11°
2026-05-06 17:50 41.82610 0.93891 35940 ft 479 kts 12°
2026-05-06 17:51 41.89022 0.96444 35929 ft 484 kts 12°
2026-05-06 17:51 41.95523 0.99028 35947 ft 491 kts 12°
2026-05-06 17:52 42.00978 1.01209 35948 ft 492 kts 12°
2026-05-06 17:52 42.07542 1.03837 35942 ft 492 kts 12°
2026-05-06 17:53 42.14150 1.06017 35935 ft 484 kts
2026-05-06 17:53 42.20760 1.05909 35938 ft 476 kts 350°
2026-05-06 17:54 42.27368 1.05185 35935 ft 477 kts 350°
2026-05-06 17:54 42.33987 1.04472 35938 ft 477 kts 350°
2026-05-06 17:55 42.40612 1.03760 35982 ft 478 kts 350°
2026-05-06 17:55 42.47235 1.03036 35979 ft 477 kts 350°
2026-05-06 17:56 42.53846 1.02305 35987 ft 477 kts 350°
2026-05-06 17:56 42.60457 1.01587 35990 ft 476 kts 350°
2026-05-06 17:57 42.67022 1.00878 36009 ft 476 kts 350°
2026-05-06 17:57 42.73615 1.00155 36017 ft 475 kts 350°
2026-05-06 17:58 42.80103 0.98843 36023 ft 467 kts 340°
2026-05-06 17:58 42.86412 0.96649 36025 ft 468 kts 341°
2026-05-06 17:59 42.92730 0.94474 36024 ft 468 kts 341°
2026-05-06 17:59 42.99048 0.92304 36027 ft 468 kts 341°
2026-05-06 18:00 43.05358 0.90114 36043 ft 468 kts 341°
2026-05-06 18:00 43.11679 0.87916 36031 ft 469 kts 341°
2026-05-06 18:01 43.18011 0.85709 36028 ft 469 kts 341°
2026-05-06 18:01 43.24347 0.83501 36034 ft 470 kts 341°
2026-05-06 18:02 43.30675 0.81293 36025 ft 470 kts 341°
2026-05-06 18:02 43.37010 0.79071 36019 ft 469 kts 341°
2026-05-06 18:03 43.43338 0.76862 36040 ft 469 kts 342°
2026-05-06 18:03 43.49429 0.73942 36013 ft 461 kts 333°
2026-05-06 18:04 43.55329 0.70469 36014 ft 461 kts 333°
2026-05-06 18:04 43.61188 0.67008 36016 ft 461 kts 333°
2026-05-06 18:05 43.67091 0.63519 36022 ft 461 kts 333°
2026-05-06 18:05 43.73030 0.60009 36019 ft 461 kts 333°
2026-05-06 18:06 43.78916 0.56511 36011 ft 461 kts 333°
2026-05-06 18:06 43.84770 0.53031 36022 ft 461 kts 334°
2026-05-06 18:07 43.90661 0.49521 36013 ft 461 kts 334°
2026-05-06 18:07 43.96548 0.46011 36008 ft 460 kts 334°
2026-05-06 18:08 44.02434 0.42496 36008 ft 460 kts 334°
2026-05-06 18:08 44.08318 0.38980 36007 ft 460 kts 334°
2026-05-06 18:09 44.14195 0.35441 36010 ft 460 kts 334°
2026-05-06 18:09 44.20058 0.31906 36005 ft 459 kts 334°
2026-05-06 18:10 44.25928 0.28366 36013 ft 459 kts 334°
2026-05-06 18:10 44.31785 0.24820 36013 ft 459 kts 334°
2026-05-06 18:11 44.37617 0.21293 36008 ft 459 kts 334°
2026-05-06 18:11 44.43464 0.17738 36012 ft 459 kts 334°
2026-05-06 18:12 44.49316 0.14170 36007 ft 459 kts 334°
2026-05-06 18:12 44.55169 0.10607 36003 ft 459 kts 334°
2026-05-06 18:13 44.61021 0.07031 35999 ft 459 kts 334°
2026-05-06 18:13 44.66868 0.03446 35999 ft 458 kts 334°
2026-05-06 18:14 44.72713 -0.00139 35994 ft 458 kts 334°
2026-05-06 18:14 44.78544 -0.03733 35994 ft 458 kts 334°
2026-05-06 18:15 44.84375 -0.07329 35996 ft 457 kts 334°
2026-05-06 18:15 44.90155 -0.10899 35995 ft 457 kts 334°
2026-05-06 18:16 44.95970 -0.14507 35993 ft 456 kts 334°
2026-05-06 18:16 45.01786 -0.18117 35997 ft 456 kts 334°
2026-05-06 18:17 45.07606 -0.21737 35997 ft 456 kts 334°
2026-05-06 18:17 45.13412 -0.25359 35990 ft 456 kts 334°
2026-05-06 18:18 45.19220 -0.28995 35998 ft 456 kts 334°
2026-05-06 18:18 45.25027 -0.32628 35992 ft 456 kts 334°
2026-05-06 18:19 45.30833 -0.36274 35984 ft 456 kts 334°
2026-05-06 18:19 45.36626 -0.39921 35986 ft 456 kts 334°
2026-05-06 18:20 45.42425 -0.43572 35982 ft 456 kts 334°
2026-05-06 18:20 45.48188 -0.47221 35989 ft 456 kts 334°
2026-05-06 18:21 45.53984 -0.50895 36003 ft 456 kts 334°
2026-05-06 18:21 45.59782 -0.54569 36005 ft 456 kts 334°
2026-05-06 18:22 45.65579 -0.58262 36000 ft 456 kts 334°
2026-05-06 18:22 45.71373 -0.61961 35988 ft 456 kts 334°
2026-05-06 18:23 45.77178 -0.65666 35996 ft 456 kts 334°
2026-05-06 18:23 45.82937 -0.69359 35998 ft 457 kts 334°
2026-05-06 18:24 45.88732 -0.73085 35995 ft 457 kts 334°
2026-05-06 18:24 45.94531 -0.76817 35997 ft 457 kts 334°
2026-05-06 18:25 46.00293 -0.80525 35995 ft 457 kts 334°
2026-05-06 18:25 46.06090 -0.84271 35996 ft 457 kts 334°
2026-05-06 18:26 46.11882 -0.88034 35999 ft 456 kts 334°
2026-05-06 18:26 46.17671 -0.91805 36004 ft 456 kts 334°
2026-05-06 18:27 46.23645 -0.94918 35998 ft 458 kts 347°
2026-05-06 18:27 46.29888 -0.96814 35998 ft 459 kts 347°
2026-05-06 18:28 46.36141 -0.98723 36006 ft 459 kts 347°
2026-05-06 18:28 46.42387 -1.00644 36007 ft 459 kts 347°
2026-05-06 18:29 46.48635 -1.02570 35997 ft 459 kts 347°
2026-05-06 18:29 46.54842 -1.04486 35999 ft 459 kts 347°
2026-05-06 18:30 46.61100 -1.06421 36004 ft 459 kts 347°
2026-05-06 18:30 46.67346 -1.08355 36000 ft 459 kts 347°
2026-05-06 18:31 46.73604 -1.10304 35999 ft 459 kts 347°
2026-05-06 18:31 46.79850 -1.12249 36001 ft 459 kts 347°
2026-05-06 18:32 46.86108 -1.14202 36007 ft 459 kts 347°
2026-05-06 18:32 46.92353 -1.16160 36006 ft 459 kts 347°
2026-05-06 18:33 46.98562 -1.18109 36008 ft 459 kts 347°
2026-05-06 18:33 47.04822 -1.20078 36008 ft 459 kts 347°
2026-05-06 18:34 47.11067 -1.22044 36008 ft 459 kts 347°
2026-05-06 18:34 47.17322 -1.24028 36012 ft 459 kts 347°
2026-05-06 18:35 47.23570 -1.25996 36013 ft 459 kts 347°
2026-05-06 18:35 47.29770 -1.27967 36008 ft 459 kts 347°
2026-05-06 18:36 47.36057 -1.29976 36010 ft 459 kts 347°
2026-05-06 18:36 47.42244 -1.31956 36011 ft 458 kts 347°